Flag for U.S.A. Weather past 2 weeks in Trenton, New Jersey, U.S.A.

Now
73 °F

Partly sunny.


Feels Like: 76 °F
Forecast: 65 / 82 °F
Wind: 5 mph from East

Location: Mercer County Airport

Current Time: Jul 2, 2015 at 12:38:53 PM

Latest Report: Jul 2, 2015 at 11:53 AM


Visibility: 10 mi

Pressure: 29.88 "Hg

Humidity: 66%

Dew point: 61 °F

Location of TrentonLocation

Historic Weather in Trenton — Graph

°F

Trenton temperature yesterday

Maximum temperature yesterday: 83 °F (at 2:53 PM)
Minimum temperature yesterday: 67 °F (at 4:53 AM)
Average temperature yesterday: 75 °F

Past Weeks' High & Low Weather Summary

 TemperatureHumidityPressure
High91 °F (Jun 23, 3:53 PM)97% (Jun 21, 6:53 AM)30.12 "Hg (Jun 21, 6:53 AM)
Low60 °F (Jun 29, 4:53 AM)38% (Jun 25, 11:53 AM)29.62 "Hg (Jun 28, 4:53 AM)
Average73 °F70%29.90 "Hg
* Reported Jun 17 10:53 AM — Jul 2 10:53 AM, Trenton, Weather by CustomWeather, © 2015

Note: Actual official high and low records may vary slightly from our data, if they occured in-between our weather recording intervals... More about our weather records

Advertising

Trenton weather history for previous 24 hours

 ConditionsComfort  
Time TempWeatherWind HumidityBarometerVisibility
10:53 AM
Thu, Jul 2
73 °FOvercast.6 mph66%29.89 "Hg10 mi
9:53 AM72 °FPartly sunny.7 mph66%29.89 "Hg10 mi
8:53 AM72 °FPassing clouds.6 mph68%29.89 "Hg10 mi
7:53 AM68 °FPartly sunny.3 mph78%29.89 "Hg7 mi
6:53 AM66 °FPartly sunny.3 mph84%29.88 "Hg6 mi
5:53 AM64 °FFog.No wind87%29.86 "Hg5 mi
4:53 AM63 °FClear.3 mph87%29.85 "Hg7 mi
3:53 AM64 °FClear.6 mph84%29.85 "Hg7 mi
2:53 AM67 °FClear.No wind76%29.85 "Hg8 mi
1:53 AM67 °FClear.3 mph79%29.86 "Hg8 mi
12:53 AM71 °FClear.3 mph66%29.86 "Hg9 mi
11:53 PM
Wed, Jul 1
73 °FClear.3 mph59%29.86 "Hg9 mi
10:53 PM74 °FClear.3 mph60%29.85 "Hg9 mi
9:53 PM77 °FClear.5 mph50%29.85 "Hg10 mi
8:53 PM78 °FSunny.7 mph48%29.82 "Hg10 mi
7:53 PM80 °FSunny.7 mph47%29.80 "Hg8 mi
6:53 PM81 °FSunny.9 mph49%29.78 "Hg8 mi
5:53 PM83 °FSunny.12 mph48%29.76 "Hg7 mi
4:53 PM83 °FPassing clouds.14 mph48%29.76 "Hg7 mi
3:53 PM83 °FPassing clouds.13 mph50%29.76 "Hg8 mi
2:53 PM83 °FPassing clouds.14 mph48%29.77 "Hg8 mi
1:53 PM81 °FScattered clouds.12 mph53%29.78 "Hg9 mi
12:53 PM80 °FPartly sunny.10 mph60%29.79 "Hg8 mi
Weather by CustomWeather, © 2015

See weather overviewHow to use our weather pages